ARIANE 44LP DEB, 33544

Orbit data source: Space-Track

ARIANE 44LP DEB, 33544 is space debris in HEO originally from a launch on Sun, 11 Dec 1988 UTC launched from the French Guiana (FRGUI). Debris objects in space refer to the collection of defunct objects orbiting the Earth. Examples of debris include non-operational satellites, rocket bodies, and fragments generated from explosions, collisions, or faulty payload assembly.

Loading next visibility...
Identifier
33544, 1988-109T
Orbit
HEO
Country
Flag of FRFR
Related business
Manufacturer
Unknown
Mission
Spacecraft
Bus & Motor
Unknown
Mass
Unknown
Launch date (UTC)
1988-12-11 (38 years ago)
Launch vehicle
Unknown
Launch site
French Guiana (FRGUI)
Object type
Payload
Rocket body
Debris
Shape & HBR
Unknown shape, 0.4 m
Radar Cross Section
Medium (>0.1 m² and <1 m²)

Expand to show TLE details & history
Last TLE update: 19 hours ago

TLE from 19 hours ago
0 ARIANE 44LP DEB
1 33544U 88109T   26256.85726500  .00000734  00000-0  14458-2 0  9997
2 33544   7.1227   7.9909 7152260 147.8924 289.5426  2.38212746205583
Epoch: 2026-09-13T20:34Z
TLE epoch observation values (Epoch: 2026-09-13T20:34:27.696Z)
Latitude
-0.00002°
Longitude
66.6529°
Altitude
22,906.358 km
Speed
3.223 km/s
True Right ascension
00h 32m 27s
True Declination
0° 00' 00"
Sunlit
Object was in daylight at epoch
Visualization orbit readout
Latitude
Unknown
Longitude
Unknown
Altitude
Unknown
Speed
Unknown
Apparent Right ascension
Unknown
Apparent Declination
Unknown
Sunlit
N/A
Visualization observer readout
Local Sidereal Time
08:31:45
Azimuth
Unknown
Elevation
Unknown
Doppler factor
Unknown
Orbital elements
Apogee altitude
34,251.636 km
Perigee altitude
367.506 km
Semi-major axis
23,687.708 km
Eccentricity
0.71523
Inclination
7.1227°
RAAN
7.9909°
Arg. of periapsis
147.8924°
True anomaly
212.31835°
Mean anomaly
289.5426°
Eccentric anomaly
250.83449°
Mean motion
0.59533 °/min
Orbital period
604.71 mins
BSTAR
0.0014458
Loading maneuver chart data...
Computing Atmospheric mass density...
Loading historical data...
Loading historical data...
Loading historical data...
Loading historical data...
Loading historical data...
Loading historical data...
Loading historical data...

Documentation

Showing up to 5 results
|